Overview Statistics Trail Chart Weather Telemetry Raw packets
 

This is the latest recevied weather packets stored in our database for station/object OM6ACB-6. If no packets are shown the sender has not sent any weather packets the latest 10 day(s).

<< 54 55 56 57 58 >>
Time Temp. Humidity Pressure Rain* Wind** Luminosity Snow
1787825988 27.22° C 20% 1025.1 hPa 0 mm - - -
1787825388 26.67° C 20% 1024.8 hPa 0 mm - - -
1787824788 24.44° C 20% 1024.7 hPa 0 mm - - -
1787824187 24.44° C 20% 1024.9 hPa 0 mm - - -
1787823587 25° C 20% 1025 hPa 0 mm - - -
1787822987 23.89° C 21% 1024.9 hPa 0 mm - - -
1787822386 23.89° C 21% 1025 hPa 0 mm - - -
1787821786 23.33° C 21% 1025 hPa 0 mm - - -
1787821186 21.11° C 22% 1024.7 hPa 0 mm - - -
1787820586 21.67° C 22% 1024.8 hPa 0 mm - - -
1787819985 21.11° C 22% 1024.7 hPa 0 mm - - -
1787819385 21.11° C 22% 1024.8 hPa 0 mm - - -
1787818785 21.11° C 22% 1024.8 hPa 0 mm - - -
1787818184 21.67° C 22% 1024.9 hPa 0 mm - - -
1787817584 20.56° C 22% 1024.7 hPa 0 mm - - -
1787816984 20.56° C 22% 1024.6 hPa 0 mm - - -
1787816384 20.56° C 22% 1024.6 hPa 0 mm - - -
1787815783 20.56° C 22% 1024.5 hPa 0 mm - - -
1787815183 21.67° C 22% 1024.7 hPa 0 mm - - -
1787814583 21.11° C 22% 1024.8 hPa 0 mm - - -
1787813982 21.11° C 22% 1024.6 hPa 0 mm - - -
1787813382 20° C 23% 1024.3 hPa 0 mm - - -
1787812782 20° C 22% 1024.3 hPa 0 mm - - -
1787812181 18.89° C 23% 1024 hPa 0 mm - - -
1787811581 18.33° C 23% 1024.2 hPa 0 mm - - -

* Rain latest hour (hover to see other rain measurements)
** Current wind speed in m/s (hover to see current wind gust speed)